Flag for U.S.A. Weather past 2 weeks in Daly City, California, U.S.A.

Now
67 °F

Passing clouds.


Feels Like: 67 °F
Forecast: 59 / 66 °F
Wind: 15 mph from West

Location: San Francisco International Airport

Current Time: Oct 22, 2014 at 9:04:22 PM

Latest Report: Oct 22, 2014 at 7:56 PM


Visibility: 10 mi

Pressure: 30.03 "Hg

Humidity: 76%

Dew point: 59 °F

Location of Daly CityLocation

Historic Weather in Daly City — Graph

°F

Daly City temperature yesterday

Maximum temperature yesterday: 72 °F (at 1:56 PM)
Minimum temperature yesterday: 57 °F (at 5:56 AM)
Average temperature yesterday: 64 °F

Past Weeks' High & Low Weather Summary

 TemperatureHumidityPressure
High90 °F (Oct 12, 1:56 PM)94% (Oct 20, 9:56 AM)30.11 "Hg (Oct 20, 9:56 AM)
Low57 °F (Oct 21, 5:56 AM)13% (Oct 12, 1:56 PM)26.00 "Hg (Oct 16, 10:20 PM)
Average67 °F71%29.94 "Hg
* Reported Oct 7 7:56 PM — Oct 22 7:56 PM, Daly City, Weather by CustomWeather, © 2014

Note: Actual official high and low records may vary slightly from our data, if they occured in-between our weather recording intervals... More about our weather records

Advertising

Daly City weather history for previous 24 hours

 ConditionsComfort  
Time TempWeatherWind HumidityBarometerVisibility
7:56 PM
Oct 22
67 °FPassing clouds.15 mph76%30.03 "Hg10 mi
6:56 PM67 °FPartly sunny.16 mph73%30.03 "Hg10 mi
5:56 PM69 °FScattered clouds.16 mph66%30.03 "Hg10 mi
4:56 PM72 °FScattered clouds.15 mph59%30.02 "Hg10 mi
3:56 PM74 °FPartly sunny.9 mph56%30.02 "Hg10 mi
2:56 PM74 °FPartly sunny.10 mph53%30.03 "Hg10 mi
1:56 PM74 °FPartly sunny.9 mph53%30.05 "Hg10 mi
12:56 PM72 °FPartly sunny.10 mph59%30.06 "Hg10 mi
11:56 AM70 °FPartly sunny.6 mph61%30.07 "Hg10 mi
10:56 AM67 °FPartly sunny.5 mph71%30.08 "Hg10 mi
9:56 AM66 °FScattered clouds.No wind70%30.07 "Hg10 mi
8:56 AM63 °FScattered clouds.No wind75%30.06 "Hg10 mi
7:56 AM59 °FPassing clouds.No wind81%30.04 "Hg10 mi
6:56 AM59 °FPassing clouds.No wind78%30.03 "Hg10 mi
5:56 AM58 °FClear.5 mph75%30.04 "Hg10 mi
4:56 AM57 °FClear.5 mph81%30.03 "Hg10 mi
3:56 AM58 °FClear.No wind81%30.04 "Hg10 mi
2:56 AM59 °FClear.6 mph84%30.05 "Hg10 mi
1:56 AM61 °FClear.5 mph81%30.04 "Hg10 mi
12:56 AM62 °FClear.8 mph83%30.05 "Hg10 mi
11:56 PM
Oct 21
63 °FPassing clouds.9 mph81%30.05 "Hg10 mi
10:56 PM63 °FPassing clouds.10 mph81%30.04 "Hg10 mi
9:56 PM63 °FPassing clouds.13 mph81%30.04 "Hg10 mi
Weather by CustomWeather, © 2014

See weather overviewHow to use our weather pages